Weather Roundup
Issued by NWS

Home | Current Version | Previous Version | Text Only | Print | Product List | Glossary On
Versions: 1 2 3 4 5 6 7 8 9 10 11 12 13 14 15 16 17 18 19 20 21 22 23 24 25 26 27 28 29 30 31 32 33 34 35 36 37 38 39 40 41 42 43 44 45 46 47 48 49 50
144
NZUS93 KARX 221710
HRRWXR

CURRENT HOURLY OBSERVATIONS ACROSS
MUCH OF THE UPPER MISSISSIPPI VALLEY
NATIONAL WEATHER SERVICE LA CROSSE WI
1100 AM CST WED NOV 22 2017


...SOUTHEAST MINNESOTA...


CITY           SKY/WX    TMP DP  RH WIND       PRES   REMARKS
ROCHESTER      CLOUDY    23  14  68 S9        30.28F WCI  13
ROCHESTER/MAYO FAIR      23  13  64 S8        30.30S WCI  14
WINONA           N/A     27  14  59 SW6       30.34F WCI  20
AUSTIN         SUNNY     25  14  63 SW10      30.29S WCI  15
ALBERT LEA     CLOUDY    25  12  58 SW8       30.28F WCI  16
DODGE CENTER   SUNNY     23  16  74 SW10      30.27F WCI  12
PRESTON        SUNNY     23  12  63 S8        30.30S WCI  14
OWATONNA       CLOUDY    25  16  68 S12       30.27F WCI  14
FARIBAULT      SUNNY     23  14  68 S9        30.27F WCI  13
$$

...ELSEWHERE IN MINNESOTA...


CITY           SKY/WX    TMP DP  RH WIND       PRES   REMARKS
MINNEAPOLIS    CLOUDY    23  13  65 S9        30.27F WCI  13
INTNL FALLS      N/A     14  10  84 S8        30.10F WCI   3
DULUTH         CLOUDY    16  11  80 SW10      30.15F WCI   4
RED WING       MOSUNNY   25   9  50 SW7       30.30F WCI  17
REDWOOD FALLS  CLOUDY    25  10  53 S16       30.23F WCI  12
MANKATO        CLOUDY    22  13  68 S12       30.27F WCI  10
WORTHINGTON    MOSUNNY   25  12  58 S17       30.22F WCI  12
FAIRMONT       SUNNY     25  13  60 S14       30.26F WCI  13
$$

...SOUTHWEST WISCONSIN...


CITY           SKY/WX    TMP DP  RH WIND       PRES   REMARKS
LA CROSSE      SUNNY     25  12  58 S8        30.33F WCI  16
PRAIRIE DU CHI SUNNY     26  13  57 S3        30.37F
BOSCOBEL       SUNNY     28  14  55 W8        30.36F WCI  20
LONE ROCK      SUNNY     26  14  60 CALM      30.35F
PLATTEVILLE    SUNNY     28  18  68 S8        30.35F WCI  19
FORT MC COY    SUNNY     24  13  61 SW5       30.33F WCI  19
CAMP DOUGLAS   SUNNY     25  12  58 SW6       30.31F WCI  18
MAUSTON-NEW LI SUNNY     25  12  58 S7        30.31F WCI  17
VIROQUA        FAIR      24  16  74 S5        30.30F WCI  18
WIS DELLS      SUNNY     25  13  59 SW7       30.32F WCI  18
$$

...ELSEWHERE IN WISCONSIN...


CITY           SKY/WX    TMP DP  RH WIND       PRES   REMARKS
MILWAUKEE      MOSUNNY   30  14  51 W8        30.34S WCI  22
MADISON        MOSUNNY   25  14  63 VRB7      30.34F WCI  17
GREEN BAY      PTSUNNY   27  15  61 SW7       30.31S WCI  19
EAU CLAIRE     CLOUDY    22  10  60 S8        30.29F WCI  12
BLACK RVR FLS  FAIR      25  10  52 SW5       30.31F WCI  19
MEDFORD        CLOUDY    20  11  66 SW9       30.24F WCI  10
WAUSAU         SUNNY     24  11  57 W7        30.26F WCI  16
WIS RAPIDS     SUNNY     25  13  60 SW9       30.30F WCI  15
MARSHFIELD     SUNNY     23  11  60 S7        30.26F WCI  15
RICE LAKE      CLOUDY    22  13  69 SW9       30.28S WCI  11
$$

...NORTHEAST IOWA...


CITY           SKY/WX    TMP DP  RH WIND       PRES   REMARKS
WATERLOO       SUNNY     26  13  57 S8        30.34F WCI  18
DUBUQUE        SUNNY     27  15  61 S3        30.34F
DECORAH        SUNNY     23  14  68 VRB5      30.31F WCI  17
MASON CITY     SUNNY     26  14  60 S13       30.32F WCI  15
CHARLES CITY   SUNNY     25  14  63 S8        30.33S WCI  16
OELWEIN        SUNNY     25  18  74 VRB7      30.33F WCI  17
$$

...ELSEWHERE IN IOWA...


CITY           SKY/WX    TMP DP  RH WIND       PRES   REMARKS
DES MOINES     MOSUNNY   27  13  55 SW7       30.37F WCI  19
IOWA CITY      SUNNY     29  16  58 SW7       30.40F WCI  22
FORT DODGE     SUNNY     27  15  61 S13       30.32F WCI  16
MARSHALLTOWN   SUNNY     26  16  65 S7        30.35F WCI  18
CEDAR RAPIDS   SUNNY     28  15  58 SW9       30.36F WCI  19
$$

...NORTHERN ILLINOIS...


CITY           SKY/WX    TMP DP  RH WIND       PRES   REMARKS
CHICAGO-OHARE  MOSUNNY   30  15  53 VRB6      30.35F WCI  24
CHICAGO-MIDWAY MOSUNNY   30  15  53 W7        30.35F WCI  23
MOLINE         SUNNY     31  16  54 W5        30.39F WCI  26
ROCKFORD       SUNNY     28  13  53 S3        30.39S
PEORIA         SUNNY     31  15  52 SW3       30.41R
$$

NOTE: "FAIR" INDICATES FEW OR NO CLOUDS BELOW 12,000 FEET WITH NO
SIGNIFICANT WEATHER AND/OR OBSTRUCTIONS TO VISIBILITY. WIND
SPEEDS ARE IN MILES-PER-HOUR.




USA.gov is the U.S. government's official web portal to all federal, state and local government web resources and services.